"datetime","# probes","# resolvers","can_ipv6","can_ipv6_prbs","can_tcp","can_tcp_prbs","can_tcp6","can_tcp6_prbs","does_ecs","does_ecs_prbs","does_flagday","does_flagday_prbs","does_rov4","does_rov4_prbs","does_rov6","does_rov6_prbs","does_qnamemin","doesnt_qnamemin","does_qnamemin_prbs","doesnt_qnamemin_prbs","does_nxdomain","doesnt_nxdomain","does_nxdomain_prbs","doesnt_nxdomain_prbs","has_ta_19036","hasnt_ta_19036","has_ta_19036_prbs","hasnt_ta_19036_prbs","has_ta_20326","hasnt_ta_20326","has_ta_20326_prbs","hasnt_ta_20326_prbs","can_rsamd5","cannot_rsamd5","broken_rsamd5","can_rsamd5_prbs","cannot_rsamd5_prbs","broken_rsamd5_prbs","can_dsa","cannot_dsa","broken_dsa","can_dsa_prbs","cannot_dsa_prbs","broken_dsa_prbs","can_rsasha1","cannot_rsasha1","broken_rsasha1","can_rsasha1_prbs","cannot_rsasha1_prbs","broken_rsasha1_prbs","can_dsansec3","cannot_dsansec3","broken_dsansec3","can_dsansec3_prbs","cannot_dsansec3_prbs","broken_dsansec3_prbs","can_rsansec3","cannot_rsansec3","broken_rsansec3","can_rsansec3_prbs","cannot_rsansec3_prbs","broken_rsansec3_prbs","can_rsasha256","cannot_rsasha256","broken_rsasha256","can_rsasha256_prbs","cannot_rsasha256_prbs","broken_rsasha256_prbs","can_rsasha512","cannot_rsasha512","broken_rsasha512","can_rsasha512_prbs","cannot_rsasha512_prbs","broken_rsasha512_prbs","can_eccgost","cannot_eccgost","broken_eccgost","can_eccgost_prbs","cannot_eccgost_prbs","broken_eccgost_prbs","can_ecdsa256","cannot_ecdsa256","broken_ecdsa256","can_ecdsa256_prbs","cannot_ecdsa256_prbs","broken_ecdsa256_prbs","can_ecdsa384","cannot_ecdsa384","broken_ecdsa384","can_ecdsa384_prbs","cannot_ecdsa384_prbs","broken_ecdsa384_prbs","can_ed25519","cannot_ed25519","broken_ed25519","can_ed25519_prbs","cannot_ed25519_prbs","broken_ed25519_prbs","can_ed448","cannot_ed448","broken_ed448","can_ed448_prbs","cannot_ed448_prbs","broken_ed448_prbs","can_gost","cannot_gost","broken_gost","can_gost_prbs","cannot_gost_prbs","broken_gost_prbs","can_sha384","cannot_sha384","broken_sha384","can_sha384_prbs","cannot_sha384_prbs","broken_sha384_prbs","is_internal","is_forwarding","is_external","is_internal_prbs","is_forwarding_prbs","is_external_prbs"
2017-06-20T23:59:59Z,225,355,169,125,353,224,164,121,115,91,0,0,0,0,0,0,4,350,2,222,1,352,1,223,0,0,0,0,0,0,0,0,1,264,88,5,174,68,0,355,0,8,225,0,88,266,0,73,171,0,0,352,0,8,225,0,86,265,0,71,172,0,86,265,0,71,172,0,86,265,0,71,172,0,0,350,2,4,224,1,88,263,0,71,171,0,88,264,0,71,171,0,0,351,2,0,224,1,0,350,3,0,224,2,88,262,2,72,172,1,89,261,0,72,169,0,209,67,79,130,64,52
2017-06-21T23:59:59Z,228,365,172,127,361,227,166,122,116,91,0,0,0,0,0,0,4,360,2,225,1,361,1,226,0,0,0,0,0,0,0,0,1,271,91,5,175,70,0,365,0,8,228,0,89,275,0,74,173,0,1,362,0,9,227,0,89,273,0,74,173,0,89,273,0,74,173,0,89,273,0,74,173,0,1,358,4,5,225,2,89,273,0,73,173,0,89,274,0,73,173,0,0,360,4,0,226,2,0,360,4,0,226,2,90,268,4,74,172,2,90,271,0,74,170,0,216,70,79,132,66,52
2017-06-22T23:59:58Z,226,356,170,126,355,225,167,124,116,90,0,0,0,0,0,0,4,351,2,223,1,353,1,224,0,0,0,0,0,0,0,0,1,264,90,6,173,70,0,356,0,9,226,0,88,267,0,74,171,0,0,356,0,9,226,0,88,267,0,74,171,0,88,267,0,74,171,0,89,267,0,75,171,0,0,352,4,5,224,2,89,266,0,74,170,0,89,266,0,74,170,0,0,352,4,0,224,2,0,352,4,0,224,2,88,263,4,73,171,2,90,263,0,75,167,0,204,71,79,128,67,52
2017-06-23T23:59:59Z,226,355,169,125,353,225,165,122,118,91,0,0,0,0,0,0,4,350,2,223,1,352,1,224,0,0,0,0,0,0,0,0,1,265,88,6,175,68,0,355,0,9,226,0,86,268,0,72,173,0,0,355,0,8,226,0,87,267,0,73,172,0,87,267,0,73,172,0,88,267,0,74,172,0,1,350,4,5,223,2,86,268,0,71,173,0,86,268,0,71,173,0,0,351,4,0,224,2,0,351,4,0,224,2,87,263,4,72,172,2,88,264,0,73,169,0,203,71,79,127,67,52
2017-06-24T23:59:59Z,223,352,169,124,348,221,165,122,118,92,0,0,0,0,0,0,2,349,2,221,1,349,1,221,0,0,0,0,0,0,0,0,1,263,87,4,173,68,0,352,0,7,223,1,87,264,0,71,170,1,1,351,0,8,222,1,88,263,0,72,169,1,87,264,0,71,170,1,88,264,0,72,170,1,0,350,2,4,222,2,87,264,0,71,170,1,87,264,0,71,170,1,0,350,2,0,222,2,0,350,2,0,222,2,87,262,2,71,171,2,88,261,0,72,167,1,201,71,78,126,67,51
2017-06-25T23:59:59Z,220,350,168,122,349,219,164,119,115,89,0,0,0,0,0,0,2,347,1,218,1,347,1,218,0,0,0,0,0,0,0,0,1,262,85,4,172,66,0,350,0,7,220,1,87,262,0,70,168,1,1,349,0,8,220,1,87,262,0,70,168,1,87,262,0,70,168,1,88,262,0,71,168,1,1,349,0,5,220,1,87,262,0,70,168,1,87,262,0,70,168,1,0,350,0,0,220,1,0,350,0,0,220,1,87,262,0,70,170,1,88,259,0,71,165,1,203,69,78,126,64,51
2017-06-26T23:59:59Z,228,361,171,125,359,226,168,123,117,90,0,0,0,0,0,0,4,356,2,225,1,358,1,225,0,0,0,0,0,0,0,0,1,268,89,4,177,69,0,361,0,7,228,1,89,271,0,72,174,1,4,356,0,9,226,1,90,266,3,73,172,2,90,266,3,73,172,2,91,266,3,74,172,2,1,354,5,5,225,3,89,267,3,72,173,2,89,269,2,72,174,2,0,358,3,0,227,3,0,358,3,0,227,3,91,266,2,74,173,2,89,264,4,72,170,3,208,73,78,130,68,51
2017-06-27T23:59:59Z,225,359,167,122,358,224,163,120,115,90,0,0,0,0,0,0,4,354,2,222,1,356,1,223,0,0,0,0,0,0,0,0,1,267,88,4,175,68,0,359,0,7,225,1,86,272,0,70,173,1,0,358,0,7,225,1,86,271,0,70,173,1,86,271,0,70,173,1,87,272,0,71,173,1,0,355,4,4,223,3,85,273,0,69,174,1,85,273,0,69,174,1,0,355,4,0,223,3,0,355,4,0,223,3,86,267,4,70,173,3,86,269,0,70,171,1,209,72,76,128,67,50
2017-06-28T23:59:59Z,226,360,168,123,359,225,164,120,113,88,0,0,0,0,0,0,4,355,3,223,1,357,1,224,0,0,0,0,0,0,0,0,1,268,88,4,176,68,0,360,0,7,226,1,86,273,0,70,174,1,0,360,0,7,226,1,85,274,0,69,175,1,86,273,0,70,174,1,87,273,0,71,174,1,0,356,4,4,224,3,86,273,0,70,174,1,86,273,0,70,174,1,0,356,4,0,224,3,0,356,4,0,224,3,87,267,4,71,173,3,87,269,0,71,171,1,210,72,76,129,67,50
2017-06-29T23:59:59Z,226,361,169,123,360,225,165,120,112,87,0,0,0,0,0,0,4,356,3,223,1,358,1,224,0,0,0,0,0,0,0,0,2,270,86,5,177,66,0,361,0,7,226,1,87,273,0,70,174,1,0,361,0,7,226,1,88,272,0,71,173,1,86,274,0,71,174,1,89,272,0,72,173,1,0,359,2,4,225,2,85,275,0,69,175,1,86,274,0,69,175,1,0,359,2,0,225,2,0,359,2,0,225,2,89,268,2,72,173,2,87,270,0,71,171,1,211,72,76,130,67,50
2017-06-30T23:59:58Z,225,357,169,124,355,224,165,121,113,88,0,0,0,0,0,0,4,352,2,222,1,354,1,223,0,0,0,0,0,0,0,0,1,268,87,4,175,68,0,357,0,7,225,1,87,269,0,71,172,1,0,357,0,7,225,1,88,268,0,72,171,1,87,269,0,72,172,1,89,268,0,73,171,1,0,355,2,4,224,2,88,268,0,72,171,1,88,268,0,72,171,1,0,355,2,0,224,2,0,355,2,0,224,2,88,266,2,72,172,2,88,266,0,72,169,1,207,72,76,129,67,50
2017-07-01T23:59:59Z,221,352,165,120,350,219,162,118,115,88,0,0,0,0,0,0,5,346,3,217,1,349,1,219,0,0,0,0,0,0,0,0,1,266,84,5,174,65,0,352,0,8,221,1,86,265,0,69,170,1,0,352,0,7,221,1,87,264,0,70,169,1,87,264,0,70,169,1,88,264,0,71,169,1,0,352,0,4,221,1,86,265,0,69,170,1,86,265,0,69,170,1,0,352,0,0,221,1,0,352,0,0,221,1,87,264,0,70,171,1,86,263,0,69,168,1,202,70,78,126,65,51
2017-07-02T23:59:59Z,223,355,167,121,354,222,164,119,117,90,0,0,0,0,0,0,5,349,4,219,1,352,1,221,0,0,0,0,0,0,0,0,1,268,84,4,176,64,0,355,0,7,223,1,86,268,0,68,172,1,1,354,0,8,223,1,89,265,0,71,169,1,88,266,0,70,170,1,89,266,0,71,170,1,1,354,0,5,223,1,87,267,0,69,171,1,87,267,0,69,171,1,0,355,0,0,223,1,0,355,0,0,223,1,88,265,0,70,172,1,88,263,0,70,168,1,206,69,78,128,64,51
2017-07-03T23:59:58Z,219,351,166,120,349,217,162,117,117,89,0,0,0,0,0,0,2,348,2,217,1,348,1,217,0,0,0,0,0,0,0,0,1,262,86,4,170,66,0,351,0,7,219,1,88,262,0,70,166,1,1,350,0,8,218,1,88,262,0,70,166,1,87,263,0,70,167,1,89,262,0,71,166,1,1,350,0,5,218,1,88,262,0,70,166,1,88,262,0,70,166,1,0,351,0,0,219,1,0,351,0,0,219,1,89,260,0,71,167,1,88,259,0,70,164,1,200,71,78,123,66,51
2017-07-04T23:59:59Z,221,354,168,122,353,220,163,119,116,89,0,0,0,0,0,0,4,349,3,218,1,351,1,219,0,0,0,0,0,0,0,0,1,265,87,5,171,66,0,354,0,8,221,1,89,264,0,72,167,1,0,354,0,8,221,1,88,265,0,71,168,1,88,265,0,71,168,1,89,265,0,72,168,1,0,354,0,4,221,1,88,265,0,70,168,1,88,265,0,70,168,1,0,354,0,0,221,1,0,354,0,0,221,1,89,264,0,71,169,1,91,262,0,73,165,2,206,68,78,128,63,51
2017-07-05T23:59:59Z,221,354,166,121,353,220,163,119,112,87,0,0,0,0,0,0,4,349,2,218,1,351,1,219,0,0,0,0,0,0,0,0,1,265,87,5,172,66,0,354,0,9,221,0,87,266,0,71,168,0,0,354,0,9,221,0,87,266,0,71,168,0,86,267,0,71,169,0,88,266,0,72,168,0,0,352,2,4,220,1,86,267,0,69,169,0,86,267,0,69,169,0,0,352,2,0,220,1,0,352,2,0,220,1,86,265,2,69,171,1,89,264,0,72,166,0,206,70,76,127,65,50
2017-07-06T23:59:59Z,220,354,165,120,353,219,158,117,116,89,0,0,0,0,0,0,2,351,1,218,1,350,1,217,0,0,0,0,0,0,0,0,1,265,86,5,172,65,0,354,0,8,220,0,86,267,0,70,168,0,0,354,0,8,220,0,86,267,0,70,168,0,86,267,0,70,168,0,87,267,0,71,168,0,0,352,2,4,219,1,85,268,0,68,169,0,85,268,0,68,169,0,0,352,2,0,219,1,0,352,2,0,219,1,86,264,2,69,170,1,87,265,0,70,167,0,207,69,76,128,63,50
2017-07-07T23:59:59Z,220,357,163,118,356,219,160,116,113,88,0,0,0,0,0,0,2,354,2,218,1,354,1,218,0,0,0,0,0,0,0,0,1,271,83,5,175,63,0,357,0,8,220,0,85,271,0,69,170,0,0,357,0,8,220,0,85,271,0,69,170,0,85,271,0,69,170,0,86,271,0,70,170,0,0,357,0,4,220,0,85,271,0,68,170,0,85,271,0,68,170,0,0,357,0,0,220,0,0,357,0,0,220,0,85,270,0,68,173,0,87,268,0,70,168,0,210,69,76,129,62,50
2017-07-08T23:59:59Z,221,359,167,119,357,220,164,117,114,87,0,0,0,0,0,0,2,356,1,219,1,356,1,219,0,0,0,0,0,0,0,0,3,270,84,6,175,64,0,359,0,9,221,0,88,270,0,70,169,0,2,357,0,11,220,0,89,269,0,71,168,0,89,269,0,71,168,0,90,269,0,72,168,0,2,357,0,6,220,0,88,271,0,69,170,0,88,270,0,69,169,0,0,359,0,0,221,0,0,359,0,0,221,0,89,269,0,70,172,0,90,267,0,71,167,0,212,68,77,130,61,51
2017-07-09T23:59:59Z,222,361,168,119,355,220,165,117,114,87,0,0,0,0,0,0,4,356,3,219,1,358,2,220,0,0,0,0,0,0,0,0,2,268,89,6,174,66,0,361,0,9,222,1,90,270,0,71,169,0,0,361,0,9,222,1,92,268,0,73,167,0,91,269,0,72,168,0,92,269,0,73,168,0,0,359,2,4,221,1,91,270,0,71,169,0,91,269,0,71,168,0,0,359,2,0,221,1,0,359,2,0,221,1,91,267,2,71,171,1,92,267,0,72,167,1,212,68,79,130,61,52
2017-07-10T23:59:59Z,223,359,164,118,358,222,161,116,113,88,0,0,0,0,0,0,4,354,3,220,1,356,2,221,0,0,0,0,0,0,0,0,2,269,87,6,174,67,0,359,0,8,223,1,88,270,0,71,170,1,0,359,0,8,223,1,89,269,0,72,169,1,89,269,0,72,169,1,89,270,0,72,170,1,0,357,2,4,222,2,89,270,0,71,170,1,89,269,0,71,169,1,0,357,2,0,222,2,0,357,2,0,222,2,88,268,2,70,172,2,89,268,0,71,169,1,210,69,78,130,62,52
2017-07-11T23:59:59Z,221,354,164,118,353,220,161,116,116,88,0,0,0,0,0,0,4,349,2,218,1,352,1,219,0,0,0,0,0,0,0,0,1,263,89,5,171,67,0,354,0,8,221,0,89,264,0,72,167,0,0,354,0,8,221,0,88,265,0,71,168,0,88,265,0,71,168,0,89,265,0,72,168,0,0,352,2,4,220,1,89,265,0,71,168,0,89,264,0,71,167,0,0,352,2,0,220,1,0,352,2,0,220,1,88,263,2,70,170,1,89,263,0,71,167,0,203,71,78,127,65,52
2017-07-12T23:59:59Z,223,360,168,119,357,221,165,117,119,91,0,0,0,0,0,0,4,355,2,220,1,358,1,221,0,0,0,0,0,0,0,0,2,269,88,6,174,67,0,360,0,8,223,0,89,270,0,72,170,0,0,360,0,8,223,0,89,270,0,72,170,0,89,270,0,72,170,0,90,270,0,73,170,0,0,358,2,4,222,1,89,271,0,71,171,0,89,270,0,71,170,0,0,358,2,0,222,1,0,358,2,0,222,1,89,268,2,71,172,1,91,267,0,73,168,0,212,68,80,132,61,53
2017-07-13T23:59:59Z,224,358,168,121,357,223,165,119,120,91,0,0,0,0,0,0,2,355,1,222,1,356,1,222,0,0,0,0,0,0,0,0,2,261,94,6,171,71,0,358,0,8,224,0,95,262,0,77,167,0,1,357,0,9,223,0,94,263,0,76,168,0,94,263,0,76,168,0,95,263,0,77,168,0,1,355,2,5,222,1,94,264,0,75,169,0,94,263,0,75,168,0,0,356,2,0,223,1,0,356,2,0,223,1,95,260,2,76,169,1,95,261,0,76,167,0,207,68,81,131,61,53
2017-07-14T23:59:59Z,222,353,168,120,347,219,164,117,119,90,0,0,0,0,0,0,2,350,1,220,1,351,1,220,0,0,0,0,0,0,0,0,1,259,92,5,173,69,0,353,0,8,222,0,92,260,0,74,169,0,0,353,0,8,222,0,92,260,0,74,169,0,92,260,0,74,169,0,93,260,0,75,169,0,0,351,2,4,221,1,93,260,0,74,169,0,93,259,0,74,168,0,0,351,2,0,221,1,0,351,2,0,221,1,93,257,2,74,170,1,94,258,0,75,167,0,203,69,81,130,62,53
2017-07-15T23:59:59Z,223,356,165,119,354,221,161,116,121,93,0,0,0,0,0,0,4,351,2,220,1,354,1,221,0,0,0,0,0,0,0,0,2,262,91,6,173,69,0,356,0,8,223,0,92,263,0,74,169,0,0,356,0,8,223,0,93,262,0,75,168,0,92,263,0,74,169,0,93,263,0,75,169,0,0,354,2,4,222,1,92,264,0,73,170,0,92,263,0,73,169,0,0,354,2,0,222,1,0,354,2,0,222,1,92,261,2,73,171,1,93,262,0,74,168,0,206,69,79,131,61,52
2017-07-16T23:59:59Z,224,357,162,118,356,223,158,115,117,91,0,0,0,0,0,0,4,352,2,221,1,355,1,222,0,0,0,0,0,0,0,0,2,265,89,6,174,68,0,357,0,9,224,0,90,266,0,74,170,0,0,357,0,9,224,0,91,265,0,75,169,0,91,265,0,75,169,0,92,265,0,76,169,0,0,355,2,5,223,1,91,266,0,74,170,0,91,265,0,74,169,0,0,355,2,0,223,1,0,355,2,0,223,1,90,263,3,73,171,2,91,265,0,74,169,0,210,69,76,133,62,51
2017-07-17T23:59:59Z,229,367,168,121,366,228,163,117,121,92,0,0,0,0,0,0,6,360,3,225,1,365,1,227,0,0,0,0,0,0,0,0,2,273,91,6,178,70,0,367,0,8,229,0,95,271,0,77,172,0,0,367,0,8,229,0,94,272,0,76,173,0,94,272,0,76,173,0,95,272,0,77,173,0,0,367,0,4,229,0,93,274,0,74,175,0,93,273,0,74,174,0,0,367,0,0,229,0,0,367,0,0,229,0,94,272,0,75,176,0,96,269,0,77,171,0,213,71,81,135,63,53
2017-07-18T23:59:59Z,228,369,170,121,366,226,165,117,121,92,0,0,0,0,0,0,4,364,3,225,2,366,2,226,0,0,0,0,0,0,0,0,1,278,89,5,180,67,0,369,0,8,228,0,91,277,0,73,175,0,1,368,0,9,227,0,93,275,0,75,173,0,93,275,0,75,173,0,93,275,1,76,173,1,1,368,0,5,227,0,91,278,0,72,176,0,91,277,0,72,175,0,0,369,0,0,228,0,0,369,0,0,228,0,92,276,0,73,177,0,93,274,0,74,173,0,213,73,81,133,65,53
2017-07-19T23:59:59Z,226,360,165,121,358,224,161,118,116,90,0,0,0,0,0,0,0,359,0,225,1,358,1,224,0,0,0,0,0,0,0,0,2,272,85,6,176,66,0,360,0,7,226,0,88,271,0,72,172,0,1,359,0,8,225,0,88,271,0,72,172,0,88,271,0,72,172,0,89,271,0,73,172,0,1,359,0,5,225,0,87,273,0,70,174,0,87,272,0,70,173,0,0,360,0,0,226,0,0,360,0,0,226,0,88,271,0,71,174,0,89,270,0,72,171,0,214,72,74,134,64,50
2017-07-20T23:59:59Z,228,364,165,121,362,227,160,117,115,88,0,0,0,0,0,0,2,361,1,226,1,362,1,226,0,0,0,0,0,0,0,0,1,274,88,5,177,67,0,364,0,7,228,0,88,275,0,72,174,0,2,362,0,9,227,0,89,274,0,73,173,0,88,275,0,72,174,0,89,275,0,73,174,0,2,360,2,6,226,1,87,277,0,70,176,0,87,276,0,70,175,0,0,362,2,0,227,1,0,362,2,0,227,1,88,273,2,71,175,1,89,274,0,72,173,0,217,73,74,135,65,50
2017-07-21T23:59:59Z,227,359,166,122,358,226,162,119,120,94,0,0,0,0,0,0,2,356,1,225,1,357,1,225,0,0,0,0,0,0,0,0,2,268,88,5,175,68,0,359,0,6,227,0,89,269,0,72,172,0,1,358,0,7,226,0,88,270,0,71,173,0,87,271,0,70,174,0,88,271,0,71,174,0,1,356,2,4,225,1,87,272,0,69,175,0,87,271,0,69,174,0,0,357,2,0,226,1,0,357,2,0,226,1,88,268,2,70,174,1,88,270,0,70,173,0,208,75,74,131,67,50
2017-07-22T23:59:59Z,227,358,168,124,357,226,164,121,121,95,0,0,0,0,0,0,2,355,2,225,1,356,1,225,0,0,0,0,0,0,0,0,1,267,88,4,176,67,0,358,0,6,227,1,88,268,0,71,173,0,1,357,0,7,226,0,89,267,0,72,172,0,89,267,0,72,172,0,90,267,0,73,172,0,1,355,2,4,225,2,89,268,0,71,173,1,89,267,0,71,172,1,0,356,2,0,226,2,0,356,2,0,226,2,89,265,2,71,173,2,91,265,0,73,170,1,204,78,74,129,70,50
2017-07-23T23:59:59Z,228,359,171,125,357,226,166,121,120,93,0,0,0,0,0,0,2,356,1,226,1,357,1,226,0,0,0,0,0,0,0,0,2,266,90,5,175,69,0,359,0,6,228,0,91,267,0,73,172,0,1,358,0,7,227,0,92,266,0,74,171,0,92,266,0,74,171,0,91,267,0,73,172,0,1,356,2,4,226,2,92,266,0,73,171,1,92,266,0,73,171,1,0,357,2,0,227,2,0,357,2,0,227,2,92,264,2,73,172,2,94,263,0,74,169,1,204,77,76,129,69,51
2017-07-24T23:59:59Z,232,371,172,126,369,231,167,122,125,95,0,0,0,0,0,0,4,366,2,229,1,369,1,230,0,0,0,0,0,0,0,0,2,276,92,5,178,70,0,371,0,7,232,0,93,277,0,75,175,0,1,370,0,8,231,0,94,276,0,76,174,0,94,276,0,76,174,0,94,276,0,76,174,0,1,368,2,5,230,1,84,286,0,69,183,0,92,278,0,73,176,0,0,369,2,0,231,1,0,369,2,0,231,1,83,285,2,66,184,1,93,276,0,74,174,0,212,77,80,132,70,53
2017-07-25T23:59:59Z,232,372,169,125,369,230,163,120,122,95,0,0,0,0,0,0,4,367,3,229,1,370,1,230,0,0,0,0,0,0,0,0,2,279,90,6,179,69,0,372,0,8,232,0,91,280,0,75,176,0,1,371,0,9,231,0,91,280,0,75,176,0,90,281,0,74,177,0,90,281,0,74,177,0,1,369,2,6,230,1,90,281,0,73,177,0,90,281,0,73,177,0,0,370,2,0,231,1,0,370,2,0,231,1,91,278,2,74,177,1,91,279,0,74,175,0,214,77,79,133,69,52
2017-07-26T23:59:59Z,231,370,167,125,368,229,162,122,118,93,0,0,0,0,0,0,2,367,1,229,1,368,1,229,0,0,0,0,0,0,0,0,1,278,90,5,177,70,0,370,0,8,231,0,90,279,0,76,174,0,0,370,0,8,231,0,88,281,0,74,176,0,88,281,0,74,176,0,88,281,0,74,176,0,0,368,2,5,230,1,90,279,0,75,174,0,90,279,0,75,174,0,0,368,2,0,230,1,0,368,2,0,230,1,88,279,2,73,177,1,89,279,0,74,174,0,213,77,78,131,69,53
2017-07-27T23:59:59Z,230,369,169,125,368,229,163,121,114,91,0,0,0,0,0,0,2,364,1,227,1,365,1,227,0,0,0,0,0,0,0,0,2,277,89,6,177,68,0,369,0,8,230,0,90,278,0,75,174,0,1,368,0,9,230,0,90,278,0,75,174,0,90,278,0,75,174,0,90,278,0,75,174,0,1,366,2,6,229,1,90,278,0,74,174,0,90,278,0,74,174,0,0,367,2,0,229,1,0,367,2,0,229,1,87,277,2,72,176,1,90,275,0,75,171,0,211,76,80,129,68,54
2017-07-28T23:59:59Z,230,369,168,125,368,229,162,121,117,93,0,0,0,0,0,0,4,364,3,227,1,367,1,228,0,0,0,0,0,0,0,0,1,277,90,5,176,70,0,369,0,8,230,0,90,278,0,76,173,0,0,369,0,8,230,0,89,279,0,75,174,0,89,279,0,75,174,0,89,279,0,75,174,0,0,367,2,5,229,1,90,278,0,75,173,0,90,277,1,75,173,1,0,367,2,0,229,1,0,367,2,0,229,1,89,277,2,74,175,1,90,277,0,75,172,0,213,76,78,130,68,53
2017-07-29T23:59:59Z,228,367,170,126,365,227,164,122,119,94,0,0,0,0,0,0,4,362,2,225,1,365,1,226,0,0,0,0,0,0,0,0,1,274,91,5,175,70,0,367,0,9,228,0,92,274,0,77,170,0,0,367,0,9,228,0,90,276,0,75,172,0,90,276,0,75,172,0,90,276,0,75,172,0,0,365,2,5,227,1,90,276,0,74,172,0,90,276,0,74,172,0,0,365,2,0,227,1,0,365,2,0,227,1,90,274,2,74,174,1,90,275,0,74,171,0,209,76,80,129,68,54
2017-07-30T23:59:59Z,229,367,170,126,366,228,164,122,118,93,0,0,0,0,0,0,4,362,3,226,1,365,1,227,0,0,0,0,0,0,0,0,1,274,91,5,176,70,0,367,0,9,229,0,90,276,0,75,173,0,0,367,0,9,229,0,92,274,0,77,171,0,92,274,0,77,171,0,92,274,0,77,171,0,0,365,2,5,228,1,91,275,0,75,172,0,91,275,0,75,172,0,0,365,2,0,228,1,0,365,2,0,228,1,91,273,2,75,174,1,92,273,0,76,170,0,212,75,78,130,67,53
2017-07-31T23:59:59Z,230,368,171,126,367,229,166,123,121,95,0,0,0,0,0,0,4,363,2,227,1,366,1,228,0,0,0,0,0,0,0,0,1,274,92,5,177,71,0,368,0,9,230,0,92,275,0,77,173,0,0,368,0,9,230,0,91,276,0,76,174,0,91,276,0,76,174,0,91,276,0,76,174,0,0,366,2,5,229,1,91,276,0,75,174,0,91,276,0,75,174,0,0,366,2,0,229,1,0,366,2,0,229,1,91,274,2,75,176,1,91,275,0,75,173,0,209,78,79,129,70,54
2017-08-01T23:59:59Z,232,371,175,128,368,231,169,124,122,94,0,0,0,0,0,0,2,368,1,230,1,369,1,230,0,0,0,0,0,0,0,0,2,275,93,6,179,71,0,371,0,10,232,0,94,276,0,78,174,0,0,371,0,10,232,0,94,276,0,78,174,0,94,276,0,78,174,0,94,276,0,78,174,0,0,369,2,5,231,1,92,278,0,75,176,0,92,278,0,75,176,0,0,369,2,0,231,1,0,369,2,0,231,1,92,276,2,75,179,1,95,274,0,77,173,0,211,79,79,132,71,54
2017-08-02T23:59:59Z,229,367,170,125,366,228,162,120,118,91,0,0,0,0,0,0,2,364,2,227,1,365,1,227,0,0,0,0,0,0,0,0,1,274,91,5,177,70,0,367,0,9,229,0,91,275,0,76,173,0,1,365,0,10,228,0,92,273,0,77,172,0,91,274,0,76,173,0,91,274,0,76,173,0,1,363,2,6,227,1,91,274,0,75,173,0,91,275,0,75,173,0,0,365,2,0,228,1,0,365,2,0,228,1,93,271,2,77,173,1,93,272,0,77,170,0,212,76,77,132,67,52
2017-08-03T23:59:59Z,230,371,170,124,370,229,165,121,118,91,0,0,0,0,0,0,4,366,2,227,1,369,1,228,0,0,0,0,0,0,0,0,1,280,89,5,179,68,0,371,0,8,230,0,89,281,0,74,176,0,1,370,0,9,229,0,90,280,0,75,175,0,89,280,0,74,176,0,89,280,0,74,176,0,1,367,2,6,228,1,89,281,0,73,176,0,89,281,0,73,176,0,0,369,2,0,229,1,0,369,2,0,229,1,91,277,2,75,175,1,90,279,0,74,174,0,214,77,78,131,68,52
2017-08-04T23:59:59Z,230,369,169,124,368,229,164,121,122,95,0,0,0,0,0,0,4,364,2,227,1,367,1,228,0,0,0,0,0,0,0,0,3,276,89,9,176,69,0,369,0,10,230,0,91,277,0,77,173,0,1,368,0,10,229,0,90,278,0,76,174,0,90,278,0,76,174,0,90,278,0,76,174,0,1,366,2,7,228,1,90,278,0,75,174,0,90,278,0,75,174,0,0,367,2,0,229,1,0,367,2,0,229,1,90,276,2,75,175,1,90,277,0,75,173,0,212,77,78,133,68,52
2017-08-05T23:59:59Z,229,369,172,125,365,226,167,122,117,91,0,0,0,0,0,0,4,364,2,226,1,366,1,226,0,0,0,0,0,0,0,0,2,278,88,6,178,67,0,369,0,8,229,0,89,279,0,74,175,0,1,368,0,9,228,0,90,278,0,75,174,0,89,279,0,74,175,0,89,279,0,74,175,0,1,366,2,6,227,1,89,279,0,73,175,0,89,279,0,73,175,0,0,367,2,0,228,1,0,367,2,0,228,1,90,276,2,74,175,1,92,275,0,75,172,0,212,78,77,130,69,51
2017-08-06T23:59:59Z,226,362,170,124,361,225,165,121,116,90,0,0,0,0,0,0,2,359,1,224,1,359,1,223,0,0,0,0,0,0,0,0,2,271,88,6,175,67,0,362,0,8,226,0,89,272,0,74,172,0,0,362,0,8,226,0,89,272,0,74,172,0,90,271,0,75,171,0,90,271,0,75,171,0,0,360,2,5,225,1,90,271,0,74,171,0,90,271,0,74,171,0,0,360,2,0,225,1,0,360,2,0,225,1,89,270,2,73,173,1,90,270,0,74,170,0,207,76,77,129,67,51
2017-08-07T23:59:59Z,228,367,170,124,365,226,165,121,118,92,0,0,0,0,0,0,2,364,1,226,1,364,1,225,0,0,0,0,0,0,0,0,2,275,89,6,176,68,0,367,0,8,228,0,90,276,0,75,173,0,1,366,0,9,227,0,91,275,0,76,172,0,90,276,0,75,173,0,90,276,0,75,173,0,1,364,2,6,226,1,89,277,0,73,174,0,89,277,0,73,174,0,0,365,2,0,227,1,0,365,2,0,227,1,89,275,2,73,175,1,90,275,0,74,172,0,212,76,77,132,67,51
2017-08-08T23:59:59Z,227,366,169,124,363,225,162,119,113,88,0,0,0,0,0,0,2,363,1,225,1,363,1,224,0,0,0,0,0,0,0,0,2,277,86,6,177,66,0,366,0,8,227,0,87,278,0,73,174,0,1,365,0,9,226,0,87,278,0,73,174,0,88,277,0,74,173,0,88,277,0,74,173,0,0,364,2,5,226,1,87,278,0,72,174,0,87,278,0,72,174,0,0,364,2,0,226,1,0,364,2,0,226,1,87,276,2,72,175,1,88,276,0,73,172,0,214,77,75,131,69,50
2017-08-09T23:59:58Z,227,366,168,124,365,226,161,119,116,90,0,0,0,0,0,0,2,362,1,225,1,363,1,224,0,0,0,0,0,0,0,0,2,274,88,5,176,68,0,366,0,7,227,0,90,275,0,75,173,0,0,366,0,7,227,0,91,274,0,77,172,0,91,274,0,77,172,0,91,274,0,77,172,0,0,364,2,4,226,1,92,273,0,76,172,0,92,273,0,76,172,0,0,364,2,0,226,1,0,364,2,0,226,1,90,273,2,74,174,1,91,273,0,74,172,0,213,78,73,130,69,49
2017-08-10T23:59:59Z,229,371,167,123,369,228,159,117,119,93,0,0,0,0,0,0,4,365,2,226,1,368,1,226,0,0,0,0,0,0,0,0,1,277,91,4,177,69,0,371,0,7,229,0,92,278,0,75,174,0,0,371,0,7,229,0,92,278,0,76,174,0,92,278,0,76,174,0,92,278,0,76,174,0,0,369,2,4,228,1,93,277,0,76,173,0,94,276,0,77,172,0,0,369,2,0,228,1,0,369,2,0,228,1,91,277,2,73,176,1,90,279,0,74,174,0,219,76,74,134,67,49
2017-08-11T23:59:59Z,229,371,168,124,369,228,160,118,119,91,0,0,0,0,0,0,2,367,1,227,1,366,1,225,0,0,0,0,0,0,0,0,1,281,87,4,179,67,0,371,0,7,229,0,90,280,0,74,175,0,1,370,0,8,228,0,91,279,0,76,174,0,91,279,0,76,174,0,91,279,0,76,174,0,1,370,0,5,228,0,91,279,0,75,174,0,90,280,0,74,175,0,0,371,0,0,229,0,0,371,0,0,229,0,92,278,0,75,175,0,90,279,0,74,174,0,216,79,74,131,71,49
2017-08-12T23:59:59Z,225,363,164,122,360,223,156,116,113,88,0,0,0,0,0,0,2,359,1,223,1,360,1,222,0,0,0,0,0,0,0,0,1,274,86,4,175,67,0,363,0,7,225,0,89,273,0,74,171,0,0,363,0,7,225,0,89,273,0,75,171,0,89,273,0,75,171,0,89,273,0,75,171,0,0,363,0,4,225,0,89,273,0,74,171,0,89,273,0,74,171,0,0,363,0,0,225,0,0,363,0,0,225,0,90,272,0,74,172,0,89,272,0,73,170,0,212,77,72,130,68,48
2017-08-13T23:59:58Z,226,365,166,124,363,224,158,118,116,92,0,0,0,0,0,0,0,363,0,225,1,362,1,223,0,0,0,0,0,0,0,0,2,273,88,5,174,68,0,365,0,8,226,0,92,272,0,77,170,0,1,364,0,9,225,0,91,273,0,77,171,0,91,273,0,77,171,0,91,273,0,77,171,0,1,364,0,5,225,0,92,272,0,77,170,0,92,272,0,77,170,0,0,365,0,0,226,0,0,365,0,0,226,0,90,274,0,73,174,0,92,271,0,76,169,0,213,76,74,130,68,49
2017-08-14T23:59:59Z,225,361,169,125,360,224,161,120,116,91,0,0,0,0,0,0,0,359,1,224,1,358,1,222,0,0,0,0,0,0,0,0,1,273,85,5,176,67,0,361,0,9,225,0,88,272,0,75,171,0,0,361,0,9,225,0,89,271,0,77,170,0,88,272,0,76,171,0,88,272,0,76,171,0,0,361,0,5,225,0,89,271,0,76,170,0,88,271,1,75,170,1,0,361,0,0,225,0,0,361,0,0,225,0,88,272,0,74,174,0,91,268,0,76,168,0,207,77,75,129,68,50
2017-08-15T23:59:59Z,225,358,170,126,357,224,162,120,117,92,0,0,0,0,0,0,0,356,1,224,1,355,1,222,0,0,0,0,0,0,0,0,1,268,86,5,175,68,0,358,0,10,225,0,90,267,0,77,170,0,0,358,0,10,225,0,90,267,0,78,170,0,90,267,0,78,170,0,90,267,0,78,170,0,0,358,0,5,225,0,90,267,0,77,170,0,89,267,1,76,170,1,0,358,0,0,225,0,0,358,0,0,225,0,90,267,0,75,173,0,91,265,0,76,168,0,202,79,75,128,69,50
2017-08-16T23:59:59Z,222,354,166,124,353,221,159,119,116,91,0,0,0,0,0,0,4,349,2,219,1,351,1,219,0,0,0,0,0,0,0,0,1,269,83,6,175,68,0,354,0,10,222,1,85,268,0,74,170,1,0,354,0,9,222,1,85,268,0,74,170,1,85,268,0,74,170,1,85,268,0,74,170,1,0,354,0,5,222,1,86,267,0,74,169,1,86,267,0,74,169,1,0,354,0,0,222,1,0,354,0,0,222,1,85,268,0,73,173,1,85,267,0,73,169,1,202,75,75,128,67,50